Skip Page Navigation
NASA JPL Caltech
NASA Logo - Jet Propulsion Laboratory + View the NASA Portal
+ Near-Earth Object (NEO) Program
Search JPL
JPL Home Earth Solar System Stars & Galaxies Technology
JPL Solar System Dynamics
BODIES ORBITS EPHEMERIDES TOOLS PHYSICAL DATA DISCOVERY FAQ SITE MAP
JPL Small-Body Database Browser
Search: [ help ]  
(2012 TC4)
Classification: Apollo [NEO]          SPK-ID: 3609693
Ephemeris | Orbit Diagram | Orbital Elements | Physical Parameters | Close-Approach Data ]

[ hide orbit diagram ]
Orbit Diagram
Note: Make sure you have Java enabled on your browser to see the applet. This applet is provided as a 3D orbit visualization tool. The applet was implemented using 2-body methods, and hence should not be used for determining accurate long-term trajectories (over several years or decades) or planetary encounter circumstances. For accurate long-term ephemerides, please instead use our Horizons system.
Orbit Viewer

Additional Notes: the orbits shown in the applet are color coded. The planets are white lines, and the asteroid/comet is a blue line. The bright white line indicates the portion of the orbit that is above the ecliptic plane, and the darker portion is below the ecliptic plane. Likewise for the asteroid/comet orbit, the light blue indicates the portion above the ecliptic plane, and the dark blue the portion below the ecliptic plane.

Orbit Viewer applet originally written and kindly provided by Osamu Ajiki (AstroArts), and further modified by Ron Baalke (JPL).


Orbital Elements at Epoch 2456400.5 (2013-Apr-18.0) TDB
Reference: JPL 19 (heliocentric ecliptic J2000)
 Element Value Uncertainty (1-sigma)   Units 
e .3357698017267198 1.7737e-05  
a 1.405721003529478 2.3583e-05 AU
q .9337223408913 9.3297e-06 AU
i .8560698635477265 0.00018404 deg
node 198.2776901709048 0.00012657 deg
peri 222.5316018870515 0.0022287 deg
M 90.60814039726174 0.0031252 deg
tp 2456247.281274973498
(2012-Nov-15.78127497)
0.0014517 JED
period 608.761428804333
1.67
0.015319
4.194e-05
d
yr
n .5913646676121962 1.4881e-05 deg/d
Q 1.877719666167657 3.1501e-05 AU
  Orbit Determination Parameters
   # obs. used (total)      301  
   data-arc span      7 days  
   first obs. used      2012-10-04  
   last obs. used      2012-10-11  
   planetary ephem.      DE405  
   SB-pert. ephem.      SB405-CPV-2  
   condition code      4  
   fit RMS      .30261  
   data source      ORB  
   producer      Otto Matic  
   solution date      2013-Jan-02 15:03:37  

Additional Information
 Earth MOID = .000137865 AU 
 T_jup = 4.681 
[ show covariance matrix ]

Ephemeris | Orbit Diagram | Orbital Elements | Physical Parameters | Close-Approach Data ]

Physical Parameter Table
Parameter Symbol Value Units Sigma Reference Notes
absolute magnitude H 26.525 mag .52897 2 autocmod 2.5b
rotation period rot_per 0.2038 h n/a Asteroid Lightcurve DataBase (Rev. 2013-May-01) Published Reference List:
[Polishook, D. (2013). Minor Planet Bul. 40, 42-43.]
[Warner, B.D. (2013) Minor Planet Bul. 40, 71-80.]

[ show close-approach data ]
Ephemeris | Orbit Diagram | Orbital Elements | Physical Parameters | Close-Approach Data ]
ABOUT SSD CREDITS/AWARDS PRIVACY/COPYRIGHT GLOSSARY LINKS
FirstGov 2013-May-25 16:10 UT
(server date/time)  
NASA Home Page
Site Manager:   Donald K. Yeomans
Webmaster  Alan B. Chamberlin